Location: Fort Wayne
(41.1310°N, 85.1290°W)
Time: 02:54:31
(UTC-04:00)

BREEZE-M DEB (TANK) - Visible Passes

Search period start: 30 May 2016 00:00
Search period end: 09 June 2016 00:00
Orbit: 265 x 13361 km, 49.6° (Epoch: 28 May)

Date Brightness Start Highest point End Pass type
(mag) Time Alt. Az. Time Alt. Az. Time Alt. Az.
30 May 6.7 01:36:36 13° SE 01:36:36 13° SE 01:38:56 10° ESE visible
31 May 5.9 02:44:27 25° SSE 02:46:44 26° SSE 02:52:42 10° E visible
01 Jun 4.5 03:52:12 25° SSW 03:58:56 46° SSE 04:03:24 10° ENE visible
02 Jun 3.2 04:59:52 12° WSW 05:09:51 87° NNW 05:13:11 10° ENE visible
03 Jun 6.3 01:56:11 23° SE 01:56:11 23° SE 02:02:33 10° E visible
04 Jun 5.1 03:03:42 30° S 03:08:19 39° SSE 03:13:37 10° E visible
05 Jun 3.7 04:11:07 20° SW 04:19:32 73° SSE 04:23:27 10° ENE visible
06 Jun 6.5 01:07:14 18° SE 01:07:14 18° SE 01:11:36 10° ESE visible
06 Jun 3.4 05:21:11 10° WSW 05:29:47 51° NNW 05:32:45 10° NE visible
07 Jun 5.6 02:14:29 32° SSE 02:17:00 34° SSE 02:23:17 10° E visible
08 Jun 4.3 03:21:37 28° SW 03:28:36 59° SSE 03:33:14 10° ENE visible
